Date,TemperatureHighF,TemperatureAvgF,TemperatureLowF,DewpointHighF,DewpointAvgF,DewpointLowF,HumidityHigh,HumidityAvg,HumidityLow,PressureMaxIn,PressureMinIn,WindSpeedMaxMPH,WindSpeedAvgMPH,GustSpeedMaxMPH,PrecipitationSumIn
2013-1-1,34,28,20,22,13,4,68,53,49,29.74,29.53,0,0,0,0.00
2013-1-2,29,22,12,13,7,-4,54,50,48,29.91,29.71,4,0,4,0.00
2013-1-3,24,15,7,6,-1,-9,51,47,43,29.94,29.79,0,0,0,0.00
2013-1-4,38,33,21,21,18,6,62,55,50,29.79,29.62,15,1,15,0.00
2013-1-5,40,34,28,22,18,13,59,51,44,30.06,29.65,8,0,8,0.00
2013-1-6,41,37,28,26,23,14,72,58,52,30.03,29.76,13,0,13,0.00
2013-1-7,34,34,32,24,22,22,69,63,62,29.97,29.76,0,0,0,0.00
2013-1-8,45,40,36,27,25,22,64,54,48,30.18,30.06,17,2,17,0.00
2013-1-9,42,40,30,31,27,20,68,60,50,30.21,29.79,22,2,22,0.00
2013-1-10,45,40,34,29,21,18,60,45,41,30.33,29.82,18,1,18,0.00
2013-1-11,39,37,31,33,28,18,82,70,51,30.33,30.03,2,0,2,0.00
2013-1-12,44,43,38,41,39,33,92,87,81,30.06,29.94,0,0,0,0.00
2013-1-13,52,48,43,49,46,41,96,93,90,29.97,29.79,16,1,16,0.00
2013-1-14,59,52,42,52,40,25,95,66,50,30.06,29.68,17,1,17,0.00
2013-1-15,42,38,35,25,23,20,56,53,51,30.12,30.03,8,0,8,0.00
2013-1-16,35,34,31,30,26,20,87,75,54,30.06,29.62,15,0,15,0.00
2013-1-17,34,33,32,30,29,28,87,85,84,29.76,29.65,4,0,4,0.00
2013-1-18,25,22,18,5,3,0,45,43,42,30.27,30.06,21,1,21,0.00
2013-1-19,46,40,24,27,22,4,59,48,40,30.21,29.71,30,5,30,0.00
2013-1-20,54,42,30,30,22,9,61,46,38,29.71,29.29,30,5,30,0.04
2013-1-21,32,27,24,13,9,6,61,46,38,29.85,29.62,12,1,12,0.00
2013-1-22,26,21,15,12,4,-2,66,47,43,29.82,29.53,12,1,12,7.77
2013-1-23,14,11,8,-3,-6,-12,46,45,39,29.91,29.85,13,1,13,0.00
2013-1-24,19,11,4,-2,-10,-16,42,38,37,29.91,29.79,14,2,14,0.00
2013-1-25,24,19,9,2,-3,-12,46,37,35,30.03,29.82,12,1,12,0.00
2013-1-26,24,18,12,5,1,-4,53,47,38,29.97,29.76,15,2,15,0.00
2013-1-27,29,23,14,7,2,-4,46,39,35,30.21,29.97,18,2,18,0.00
2013-1-28,30,27,21,22,11,1,75,52,37,30.15,29.79,15,1,15,0.00
2013-1-29,34,31,26,29,24,19,81,74,71,29.94,29.82,6,0,6,0.04
2013-1-30,59,52,36,56,50,34,98,91,84,29.76,29.23,27,6,27,3.15
2013-1-31,61,47,32,58,36,15,94,66,45,29.32,28.73,72,4,72,25.45
2013-2-1,34,30,25,13,10,5,47,42,40,29.79,29.44,9,0,10,0.00
2013-2-2,33,26,19,12,6,1,45,42,39,30.00,29.79,8,0,9,0.00
2013-2-3,27,26,24,17,15,8,68,64,43,29.79,29.47,0,0,1,1.98
2013-2-4,28,24,21,10,6,3,60,48,42,29.68,29.47,4,0,5,0.00
2013-2-5,29,26,23,18,10,5,67,50,43,29.79,29.68,0,0,1,0.00
2013-2-6,38,32,26,25,17,7,72,55,43,30.03,29.68,0,0,1,0.00
2013-2-7,28,23,19,11,4,0,48,42,38,30.27,30.03,11,0,12,0.00
2013-2-8,33,30,19,30,26,11,98,85,48,30.24,29.32,46,12,47,0.00
2013-2-9,22,18,14,17,11,2,91,74,56,29.91,29.29,47,2,48,0.00
2013-2-10,31,22,13,13,6,-1,57,50,45,30.12,29.91,6,0,6,0.00
2013-2-11,41,33,25,39,27,13,96,79,58,29.97,29.32,0,0,1,22.38
2013-2-12,39,36,34,29,26,23,80,66,60,29.59,29.38,2,0,3,7.31
2013-2-13,42,36,29,27,23,20,71,61,52,29.62,29.44,2,0,3,8.24
2013-2-14,34,33,33,25,23,21,70,66,62,29.47,29.44,2,0,3,0.00
2013-2-17,23,21,17,12,4,0,67,49,45,29.38,29.12,14,1,15,0.00
2013-2-18,30,22,15,9,3,-2,47,44,39,29.88,29.38,11,1,12,2.57
2013-2-19,44,35,23,38,21,4,88,57,43,29.91,29.32,13,0,14,29.80
2013-2-20,41,33,27,38,19,9,88,59,44,29.50,29.26,13,1,14,7.42
2013-2-21,32,28,24,12,10,8,52,48,43,29.91,29.50,14,1,15,0.45
2013-2-22,37,31,24,20,16,10,59,53,44,30.12,29.91,18,2,19,0.00
2013-2-23,37,35,33,32,26,19,86,69,56,30.09,29.68,9,0,10,29.53
2013-2-24,38,35,31,36,32,29,94,92,86,29.68,29.44,27,5,28,9.17
2013-2-25,38,34,30,30,29,27,92,81,68,30.00,29.62,11,1,12,1.27
2013-2-26,43,38,32,35,30,27,87,73,59,30.09,29.91,17,0,18,0.00
2013-2-27,41,40,38,40,39,38,98,97,93,29.76,29.29,33,10,34,1.95
2013-2-28,43,38,34,43,38,34,98,98,98,29.38,29.26,5,0,6,0.00
2013-3-1,40,37,35,36,32,27,97,81,71,29.44,29.32,11,1,12,0.00
2013-3-2,42,38,32,29,26,23,74,64,58,29.41,29.35,12,0,13,0.00
2013-3-3,41,36,34,30,27,22,77,68,61,29.38,29.29,6,0,7,0.00
2013-3-4,40,35,31,24,22,18,69,58,49,29.44,29.32,14,2,15,0.00
2013-3-5,43,39,32,29,25,18,68,58,52,29.79,29.59,17,1,18,0.00
2013-3-6,39,37,35,34,29,26,84,74,58,29.88,29.79,43,17,44,0.00
2013-3-7,34,32,31,31,29,28,91,89,84,29.79,29.74,35,9,36,0.00
2013-3-8,40,34,30,31,25,20,92,72,49,29.88,29.68,51,6,52,0.00
2013-3-9,40,35,31,28,23,17,77,61,51,30.12,29.88,29,4,30,0.00
2013-3-10,39,34,29,31,28,24,83,77,69,30.18,30.06,10,1,11,0.00
2013-3-11,50,45,35,39,36,31,86,72,60,30.03,29.91,15,2,16,0.00
2013-3-12,54,51,44,53,49,42,98,93,83,29.80,29.47,25,3,26,0.00
2013-3-13,52,45,37,51,32,18,96,60,41,29.53,29.44,4,0,5,0.00
2013-3-14,39,32,24,18,13,5,51,44,41,29.56,29.44,5,0,6,0.00
2013-3-15,39,33,22,20,13,4,54,44,36,29.59,29.35,13,1,14,0.00
2013-3-16,39,36,29,20,15,12,54,42,39,29.62,29.38,16,1,17,0.00
2013-3-17,38,34,29,16,11,6,45,38,35,30.00,29.62,11,2,12,0.00
2013-3-18,36,30,20,22,11,-1,72,44,37,30.21,30.00,13,1,14,0.00
2013-3-19,36,33,29,34,31,21,95,90,69,30.00,29.32,34,12,35,0.00
2013-3-20,36,32,27,25,21,18,87,64,53,29.56,29.41,15,0,16,0.00
2013-3-21,36,32,28,26,20,16,80,63,50,29.56,29.35,11,0,12,0.00
2013-3-22,39,36,30,25,20,16,77,54,46,29.47,29.35,19,1,20,0.00
2013-3-23,42,38,30,22,18,15,59,45,40,29.50,29.35,14,2,15,0.00
2013-3-24,45,40,31,25,22,16,60,49,40,29.56,29.47,15,2,16,0.00
2013-3-25,44,39,33,31,26,20,66,60,54,29.44,29.26,27,9,28,0.00
2013-3-26,48,43,33,26,23,18,72,47,38,29.50,29.32,18,2,19,0.00
2013-3-27,53,46,34,28,24,17,51,42,37,29.62,29.47,15,2,16,0.00
2013-3-28,47,44,38,30,28,24,72,55,46,29.74,29.59,15,1,16,0.00
2013-3-29,54,48,37,33,30,25,62,50,39,29.79,29.71,11,1,12,0.00
2013-3-30,54,47,39,30,27,25,58,46,36,29.85,29.76,11,1,16,0.00
2013-3-31,58,50,37,32,27,20,56,41,29,29.88,29.59,25,4,26,0.00
2013-4-1,62,49,36,42,34,14,82,57,40,29.50,29.26,18,2,19,0.00
2013-4-2,40,36,30,18,14,10,43,39,36,29.68,29.56,24,3,25,0.00
2013-4-3,46,39,30,18,14,10,42,35,30,29.88,29.68,14,3,15,0.00
2013-4-4,54,42,30,22,17,9,44,36,26,30.03,29.79,17,2,18,0.00
2013-4-5,55,46,38,31,24,18,52,43,34,29.79,29.38,18,2,19,0.00
2013-4-6,45,39,32,18,14,10,41,35,29,30.09,29.62,12,2,14,0.00
2013-4-7,53,44,34,37,25,14,69,47,32,30.09,29.76,27,5,28,0.00
2013-4-8,60,51,45,40,36,32,75,59,38,29.88,29.71,12,1,14,0.00
2013-4-9,68,53,46,51,41,35,83,64,41,29.85,29.62,10,1,11,0.00
2013-4-10,47,47,47,39,39,38,76,73,71,29.76,29.71,10,1,11,0.00
2013-4-13,49,44,42,40,37,35,85,78,67,29.71,29.59,11,0,12,0.00
2013-4-14,52,46,41,40,32,24,85,60,41,29.97,29.68,9,1,10,0.00
2013-4-15,53,45,36,36,30,24,69,55,41,30.18,29.97,14,2,15,0.00
2013-4-16,64,53,42,47,37,30,74,56,37,30.18,29.82,30,5,31,0.00
2013-4-17,63,58,50,49,37,27,73,47,31,30.09,29.82,15,1,16,0.00
2013-4-18,60,52,45,39,31,26,59,44,33,30.21,29.91,24,4,24,0.00
2013-4-19,73,64,53,62,54,38,91,73,50,29.94,29.44,27,6,28,0.00
2013-4-20,66,55,46,62,42,22,90,63,39,29.97,29.38,18,1,19,0.00
2013-4-21,51,44,36,26,22,16,51,42,36,30.44,29.97,16,2,17,0.00
2013-4-22,50,43,37,31,26,22,60,52,38,30.53,30.39,26,7,26,0.00
2013-4-23,42,41,40,40,35,26,92,80,56,30.39,29.91,29,8,30,0.00
2013-4-24,63,52,42,52,44,40,93,77,46,29.91,29.56,31,4,32,0.00
2013-4-25,62,54,49,50,41,29,84,62,34,30.03,29.62,24,2,25,0.00
2013-4-26,56,50,47,31,28,25,47,42,37,30.21,30.03,21,6,22,0.00
2013-5-11,68,65,63,60,58,57,86,80,73,29.56,29.47,11,1,12,0.00
2013-5-12,68,62,52,60,51,30,91,71,40,29.56,29.32,11,0,12,0.00
2013-5-13,60,53,45,34,30,24,51,41,35,29.79,29.56,13,0,14,0.00
2013-5-14,59,52,43,32,28,25,51,41,35,29.82,29.76,14,0,15,0.00
2013-5-15,60,50,45,48,32,25,71,50,39,29.82,29.47,19,1,20,0.00
2013-5-16,78,67,53,47,41,30,76,44,24,29.59,29.41,13,0,14,0.00
2013-5-17,66,60,54,40,36,30,51,41,27,30.00,29.56,12,0,14,0.00
2013-5-18,72,60,50,46,41,37,62,51,34,30.09,30.00,11,0,12,0.00
2013-5-19,70,58,51,52,46,41,84,65,47,30.15,30.03,13,1,14,0.00
2013-5-20,78,66,57,63,57,52,89,74,54,30.03,29.71,7,0,8,0.00
2013-5-21,70,60,52,60,54,48,94,81,67,29.79,29.68,18,2,19,0.00
2013-5-22,62,56,51,58,52,49,95,90,80,29.85,29.71,14,0,15,0.00
2013-5-23,73,68,54,64,62,52,93,81,72,29.74,29.62,21,3,22,0.00
2013-5-24,69,64,52,66,60,49,93,90,81,29.62,29.44,5,0,10,0.00
2013-5-25,53,50,42,51,47,39,94,92,88,29.59,29.47,11,1,12,0.00
2013-5-26,58,52,42,45,40,34,92,64,48,29.88,29.50,12,1,13,0.00
2013-5-27,68,63,57,38,37,35,47,38,33,29.94,29.85,3,0,4,0.00
2013-5-28,69,63,58,48,44,40,67,50,38,30.03,29.94,9,1,10,0.00
2013-5-29,60,60,60,56,55,55,86,85,84,29.91,29.88,0,0,1,0.00
2013-5-30,83,79,70,77,68,61,97,70,54,29.85,29.76,7,0,8,0.00
2013-5-31,90,85,71,69,62,58,74,48,36,29.85,29.68,7,0,8,0.00
2013-6-1,89,85,76,65,61,58,60,45,35,29.74,29.62,13,1,14,0.00
2013-6-2,88,81,72,67,61,57,71,53,37,29.62,29.47,22,3,22,0.00
2013-6-3,75,71,65,65,60,43,83,70,45,29.62,29.50,14,0,15,0.00
2013-6-4,69,66,58,45,41,38,49,41,36,29.85,29.65,11,0,12,0.00
2013-6-5,72,66,58,46,43,38,54,43,35,29.94,29.85,11,0,12,0.00
2013-6-6,72,67,63,50,47,41,56,49,44,29.97,29.88,7,0,8,0.00
2013-6-17,82,73,63,65,60,51,98,68,34,29.68,29.53,11,0,12,0.00
2013-6-18,71,63,59,68,62,58,98,96,85,29.71,29.68,17,1,18,0.00
2013-6-19,69,65,59,64,55,48,98,71,54,29.91,29.71,14,1,15,0.00
2013-6-20,73,70,62,56,54,49,66,57,48,30.03,29.91,11,0,12,0.00
2013-6-21,79,74,65,62,59,51,67,59,50,30.03,29.94,7,0,8,0.00
2013-6-22,81,77,69,60,56,50,64,49,39,29.97,29.85,13,1,14,0.00
2013-6-23,88,81,67,67,62,51,63,54,43,29.91,29.74,13,0,14,0.00
2013-6-24,90,83,71,72,68,60,96,61,46,29.74,29.62,16,0,17,0.00
2013-6-25,87,84,77,78,68,62,86,59,45,29.62,29.47,12,1,13,0.00
2013-6-26,85,75,68,69,67,64,89,76,57,29.59,29.50,7,0,8,0.00
2013-6-27,69,66,63,65,63,61,94,90,84,29.62,29.53,6,0,7,0.00
2013-6-28,78,72,63,73,68,62,98,86,71,29.53,29.26,19,2,20,0.00
2013-6-29,80,76,71,69,65,63,87,69,57,29.47,29.32,17,2,18,0.00
2013-6-30,84,78,71,70,66,64,82,68,55,29.68,29.47,17,1,18,0.00
2013-7-1,79,75,73,72,70,67,89,84,74,29.82,29.68,9,0,10,0.00
2013-7-2,80,72,63,72,65,58,87,79,69,29.97,29.88,11,1,12,0.00
2013-7-3,85,80,63,73,69,59,89,70,60,29.94,29.88,11,0,12,0.00
2013-7-4,90,83,76,74,72,68,85,69,53,29.94,29.88,6,0,6,0.00
2013-7-5,91,88,82,74,70,66,73,55,45,29.88,29.76,9,0,10,0.00
2013-7-6,90,86,78,72,66,58,69,52,44,29.79,29.71,5,0,7,0.00
2013-7-7,88,83,77,70,67,61,71,59,48,29.76,29.65,5,0,6,0.00
2013-7-8,83,76,69,73,66,61,80,73,67,29.79,29.68,13,1,14,0.00
2013-7-9,72,69,67,65,63,61,87,81,77,29.85,29.79,6,0,7,0.00
2013-7-10,82,76,67,73,70,65,93,82,67,29.76,29.53,16,1,17,0.00
2013-7-11,80,76,73,72,70,66,88,80,70,29.65,29.53,4,0,5,0.00
2013-7-12,74,71,67,67,57,51,86,62,47,29.94,29.65,18,2,19,0.00
2013-7-13,74,70,67,66,63,59,86,78,73,30.06,29.94,6,0,7,0.00
2013-7-14,88,80,69,74,69,65,90,71,52,30.03,29.94,10,0,11,0.00
2013-7-15,88,82,77,73,68,64,78,61,50,29.94,29.82,7,0,8,0.00
2013-7-16,89,82,75,70,66,63,72,59,45,29.91,29.85,7,0,8,0.00
2013-7-17,89,84,74,73,69,64,74,61,50,29.91,29.74,11,0,12,0.00
2013-7-18,90,81,76,72,68,64,75,65,50,29.76,29.68,10,0,11,0.00
2013-7-19,96,90,77,74,69,64,75,53,38,29.68,29.44,13,1,14,0.00
2013-7-20,92,86,79,74,68,60,72,55,43,29.53,29.35,14,0,15,0.00
2013-7-21,79,74,71,64,60,56,78,63,48,29.74,29.53,10,0,11,0.00
2013-7-22,79,73,69,68,64,62,83,76,64,29.76,29.62,11,0,12,0.00
2013-7-23,77,73,69,74,70,65,94,90,83,29.65,29.26,8,0,9,0.00
2013-7-24,84,78,68,73,65,52,92,65,52,29.68,29.32,10,0,11,0.00
2013-7-25,68,62,61,57,54,49,86,74,55,29.85,29.68,15,2,16,0.00
2013-7-26,69,66,61,65,63,57,93,89,82,29.82,29.68,11,0,12,0.00
2013-7-27,81,73,62,68,62,59,90,70,48,29.79,29.74,11,0,12,0.00
2013-7-28,76,71,68,68,64,60,86,78,70,29.79,29.71,11,0,12,0.00
2013-7-29,78,73,70,71,68,64,90,84,71,29.79,29.71,7,0,8,0.00
2013-7-30,80,74,65,67,59,53,90,61,43,29.82,29.76,9,0,10,0.00
2013-7-31,80,74,67,61,58,55,70,59,46,29.88,29.79,6,0,6,0.00
2013-8-1,80,75,70,66,60,54,71,59,46,29.79,29.62,13,0,14,0.00
2013-8-2,80,75,67,68,60,54,85,61,44,29.59,29.50,7,0,8,0.00
2013-8-3,77,74,70,61,58,55,66,58,49,29.59,29.50,7,0,8,0.00
2013-8-4,78,72,64,57,54,51,68,55,41,29.62,29.50,11,0,12,0.00
2013-8-5,74,68,60,50,44,39,66,43,32,29.76,29.65,13,0,14,0.00
2013-8-6,76,69,59,55,49,41,66,49,37,29.88,29.82,5,0,6,0.00
2013-8-7,77,71,63,60,53,44,71,54,37,29.91,29.82,10,0,11,0.00
2013-8-8,80,76,69,67,66,62,79,71,63,29.82,29.74,11,1,12,0.00
2013-8-9,75,74,72,72,70,66,94,89,78,29.76,29.47,10,0,11,0.00
2013-8-10,82,77,68,65,56,50,63,49,43,29.71,29.59,9,0,10,0.00
2013-8-11,78,73,63,54,52,49,64,47,39,29.79,29.71,10,0,11,0.00
2013-8-12,80,76,67,57,54,51,70,47,38,29.74,29.65,6,0,7,0.00
2013-8-13,74,71,68,64,61,56,78,72,57,29.65,29.41,9,0,10,0.00
2013-8-14,74,69,63,61,49,46,78,49,41,29.68,29.41,10,1,11,0.00
2013-8-15,76,70,59,51,47,45,64,45,35,29.82,29.74,6,0,7,0.00
2013-8-16,78,73,61,53,49,46,63,45,35,29.91,29.82,9,0,10,0.00
2013-8-17,64,63,63,51,51,51,64,64,64,29.97,29.97,6,0,7,0.00
2013-8-18,79,74,70,63,56,52,67,53,43,30.00,29.82,7,0,8,0.00
2013-8-19,80,75,66,56,55,54,66,50,42,29.76,29.68,4,0,5,0.00
2013-8-20,85,75,68,62,58,55,66,55,39,29.79,29.68,6,0,7,0.00
2013-8-21,86,81,72,64,60,56,65,48,41,29.85,29.74,6,0,7,0.00
2013-8-22,87,80,70,66,63,59,74,58,39,29.71,29.56,14,1,15,0.00
2013-8-23,78,72,67,60,55,48,68,56,44,29.82,29.59,9,1,10,0.00
2013-8-24,74,68,59,48,42,38,59,40,33,30.03,29.97,11,1,12,0.00
2013-8-25,80,74,62,52,48,45,56,40,33,30.09,29.91,9,0,10,0.00
2013-8-26,81,76,68,60,58,53,65,54,46,29.82,29.62,9,1,10,0.00
2013-8-27,78,74,69,67,63,60,79,70,61,29.62,29.56,9,0,10,0.00
2013-8-28,78,69,64,67,62,58,89,78,65,29.74,29.59,10,0,11,0.00
2013-8-29,66,64,63,63,59,56,90,82,77,29.82,29.71,18,2,19,0.00
2013-8-30,81,76,66,64,63,59,78,63,52,29.71,29.56,10,0,11,0.00
2013-8-31,80,76,71,72,69,64,88,80,72,29.56,29.53,4,0,5,0.00
2013-9-1,77,73,72,73,69,65,91,87,79,29.62,29.56,2,0,3,0.00
2013-9-2,78,75,72,73,70,67,92,85,73,29.62,29.44,2,0,3,0.00
2013-9-3,81,75,69,70,66,57,89,74,56,29.53,29.41,2,0,3,0.00
2013-9-4,80,74,64,59,53,50,74,49,39,29.65,29.56,0,0,1,0.00
2013-9-5,68,65,59,59,53,48,77,66,59,29.85,29.62,2,0,3,0.00
2013-9-6,68,63,51,42,39,38,62,42,33,29.97,29.82,0,0,1,0.00
2013-9-7,78,68,56,49,44,39,57,44,32,29.82,29.59,0,0,1,0.00
2013-9-8,75,68,58,58,46,35,67,48,34,29.79,29.47,2,0,3,0.00
2013-9-9,71,64,51,44,40,35,56,42,32,29.97,29.88,2,0,3,0.00
2013-9-10,74,71,64,66,62,43,85,74,65,29.88,29.76,2,0,3,0.00
2013-9-11,93,84,70,76,68,62,89,63,38,29.82,29.68,2,0,3,0.00
2013-9-12,88,81,69,71,67,63,80,64,47,29.65,29.38,17,1,18,0.00
2013-9-13,70,64,62,64,56,53,81,74,72,29.47,29.38,10,1,11,0.00
2013-9-14,68,64,58,54,50,47,72,61,55,29.79,29.56,9,0,10,0.00
2013-9-15,72,65,54,52,46,42,74,52,37,29.91,29.79,10,0,11,0.00
2013-9-16,67,60,51,51,45,33,68,57,48,29.97,29.76,12,1,13,0.00
2013-9-17,60,56,44,40,36,31,64,47,38,30.15,29.97,17,1,18,0.00
2013-9-18,71,64,49,45,41,37,65,43,33,30.06,29.88,5,0,6,0.00
2013-9-19,73,64,53,51,48,41,66,55,43,29.88,29.79,7,0,8,0.00
2013-9-20,62,57,56,51,48,48,74,73,63,29.82,29.79,0,0,1,0.00
2013-9-21,75,71,60,61,57,52,84,63,46,29.74,29.50,21,4,22,0.00
2013-9-22,70,64,56,64,51,42,85,64,47,29.56,29.35,13,1,14,0.00
2013-9-23,62,56,49,41,38,34,64,50,44,29.74,29.62,11,1,12,0.00
2013-9-24,64,56,46,42,38,34,67,51,40,29.74,29.56,12,1,19,0.00
2013-9-25,65,57,50,45,42,38,65,58,46,29.74,29.62,10,0,11,0.00
2013-9-26,64,59,54,47,45,42,68,58,49,29.85,29.76,18,0,19,0.00
2013-9-27,65,60,57,50,46,43,70,60,49,30.00,29.88,14,1,15,0.00
2013-9-28,66,56,54,54,48,45,77,73,64,30.06,30.00,9,0,10,0.00
2013-10-4,65,62,58,54,51,44,77,68,59,29.82,29.79,7,0,8,0.00
2013-10-5,69,63,60,56,54,52,83,73,59,29.88,29.79,7,0,8,0.00
2013-10-6,62,58,56,55,54,52,93,86,72,30.00,29.88,11,0,12,0.00
2013-10-7,76,69,61,70,63,53,97,83,68,29.82,29.56,37,3,38,0.00
2013-10-8,65,59,52,53,40,35,70,50,40,30.12,29.65,11,1,12,0.00
2013-10-9,55,50,48,42,39,35,71,66,51,30.21,30.12,6,0,7,0.00
2013-10-10,61,54,48,50,46,41,78,74,66,30.12,30.03,7,0,8,0.00
2013-10-11,67,61,52,54,48,41,84,64,43,29.91,29.85,9,1,10,0.00
2013-10-12,60,57,55,54,51,47,87,80,71,30.15,29.88,16,3,17,0.00
2013-10-13,59,55,48,48,44,40,85,67,55,30.21,30.15,13,2,14,0.00
2013-10-14,62,55,43,47,44,37,83,68,51,30.15,30.00,7,0,8,0.00
2013-10-15,58,56,52,52,50,44,80,77,74,30.00,29.94,0,0,1,0.00
2013-10-16,62,58,52,54,52,48,88,80,74,29.91,29.68,10,0,11,0.00
2013-10-17,70,65,56,60,57,53,92,75,62,29.68,29.50,7,0,8,0.00
2013-10-18,68,62,55,54,44,36,77,52,43,29.65,29.44,10,1,11,0.00
2013-10-19,68,62,54,42,40,37,59,45,35,29.71,29.50,14,2,15,0.00
2013-10-20,62,57,50,46,35,29,66,44,35,29.74,29.44,10,1,11,0.00
2013-10-21,66,57,46,42,37,29,58,47,36,29.85,29.74,11,0,12,0.00
2013-10-22,67,60,50,49,42,33,75,54,43,29.76,29.44,11,1,12,0.00
2013-10-23,51,46,44,33,31,30,58,54,50,29.53,29.50,4,0,5,0.00
2013-10-24,55,48,42,30,26,21,55,41,36,29.62,29.47,11,1,12,0.00
2013-10-25,50,44,37,30,24,20,58,45,38,29.88,29.62,7,0,8,0.00
2013-10-26,54,48,36,31,27,22,60,45,33,29.88,29.62,17,2,18,0.00
2013-10-27,56,50,44,35,30,24,65,47,38,29.79,29.56,7,0,8,0.00
2013-10-28,59,50,39,33,27,19,57,42,36,30.09,29.79,11,1,12,0.00
2013-10-29,49,41,34,28,22,16,59,48,40,30.18,30.06,9,0,10,0.00
2013-10-30,49,43,39,38,33,27,73,67,59,30.09,29.91,3,0,4,0.00
2013-10-31,62,52,41,59,46,34,91,80,74,29.97,29.56,18,1,19,0.00
2013-11-1,70,65,59,60,55,50,90,69,59,29.56,29.20,34,3,35,0.00
2013-11-2,67,60,53,51,44,39,74,56,37,29.47,29.32,6,0,7,0.00
2013-11-3,54,43,35,44,30,16,77,61,43,30.12,29.44,10,0,11,0.00
2013-11-4,41,37,30,20,18,14,52,45,39,30.41,30.30,18,2,19,0.00
2013-11-5,51,42,32,30,25,16,57,51,41,30.44,30.24,11,0,12,0.00
2013-11-6,61,52,43,47,37,28,75,57,42,30.24,29.76,17,2,18,0.00
2013-11-7,64,60,54,56,55,45,88,82,71,29.76,29.50,16,3,17,0.00
2013-11-8,48,42,35,31,24,18,58,50,44,29.79,29.59,7,0,8,0.00
2013-11-9,46,42,34,24,21,18,52,43,39,29.91,29.79,9,0,10,0.00
2013-11-10,43,43,43,28,25,24,54,49,47,29.79,29.56,5,0,6,0.00
2013-11-11,51,48,42,28,25,24,48,41,37,29.79,29.62,15,1,16,0.00
2013-11-12,43,34,29,33,18,11,69,52,44,29.91,29.65,10,0,11,0.00
2013-11-13,36,32,26,15,12,10,49,43,40,30.00,29.91,6,0,11,0.00
2013-11-14,44,42,31,20,19,12,45,39,38,29.82,29.79,8,0,9,0.00
2013-11-15,59,51,38,26,23,16,41,33,25,29.91,29.82,15,1,16,0.00
2013-11-16,57,48,44,30,26,22,52,43,34,30.03,29.94,7,0,8,0.00
2013-11-17,53,50,42,48,41,26,88,73,52,30.03,29.59,7,0,8,0.00
2013-11-18,65,59,49,62,42,29,98,55,44,29.59,29.26,16,1,17,0.00
2013-11-19,49,43,33,29,22,12,46,42,38,29.94,29.38,14,2,15,0.00
2013-11-20,40,35,29,16,13,9,44,39,36,30.33,30.15,12,1,13,0.00
2013-11-21,49,42,28,24,19,8,46,40,35,30.36,30.09,10,0,11,0.00
2013-11-22,47,45,42,41,38,22,85,76,46,30.09,29.53,5,0,6,0.00
2013-11-23,45,39,30,31,20,12,65,47,39,29.62,29.47,13,1,14,0.00
2013-11-24,31,24,21,12,3,-2,53,39,34,29.91,29.47,15,4,16,0.00
2013-11-25,32,28,17,12,4,-4,42,36,32,30.09,29.91,19,2,20,0.00
2013-11-26,44,38,32,41,21,12,87,50,40,30.03,29.76,15,0,16,0.00
2013-11-27,62,53,39,61,51,32,98,92,78,29.76,28.94,41,3,42,0.00
2013-11-28,39,31,26,33,14,8,79,50,41,30.15,29.14,15,1,16,0.00
2013-11-29,32,28,23,13,9,4,54,46,41,30.44,30.15,6,0,7,0.00
2013-11-30,34,30,20,21,14,4,58,50,44,30.50,30.15,9,1,10,0.00
2013-12-1,44,39,34,36,33,20,86,77,58,30.15,29.74,11,0,12,0.00
2013-12-2,41,39,37,38,35,34,90,87,86,29.71,29.65,2,0,3,0.00
2013-12-3,46,40,36,37,33,28,90,77,63,29.65,29.56,7,0,8,0.00
2013-12-4,42,38,33,27,26,24,78,61,51,29.91,29.65,8,0,9,0.00
2013-12-5,49,45,35,48,40,25,95,80,64,29.91,29.65,6,0,7,0.00
2013-12-6,56,47,35,54,41,30,94,79,63,29.88,29.59,7,0,8,0.00
2013-12-7,40,35,30,31,24,16,83,65,52,30.15,29.82,10,0,11,0.00
2013-12-8,30,29,27,17,15,12,59,56,48,30.30,30.15,7,0,8,0.00
2013-12-9,41,35,27,39,30,12,97,84,48,30.21,29.59,19,1,20,0.00
2013-12-10,35,32,25,32,28,15,91,85,63,29.71,29.53,6,0,7,0.00
2013-12-11,33,27,24,20,16,14,70,63,54,29.91,29.71,16,0,17,0.00
2013-12-12,25,22,19,14,5,2,64,47,43,29.97,29.79,10,0,11,0.00
2013-12-13,29,23,16,12,7,0,55,50,45,30.09,29.71,14,1,15,0.00
2013-12-14,30,18,11,26,6,-5,88,59,46,30.30,29.88,26,4,26,0.00
2013-12-15,36,29,24,35,28,23,98,96,88,29.85,29.12,31,5,32,0.00
2013-12-16,28,23,18,23,15,10,92,72,64,29.91,29.44,3,0,4,0.00
2013-12-17,22,16,8,19,9,0,88,76,62,30.00,29.65,18,2,19,0.00
2013-12-18,32,26,18,24,20,14,86,78,69,29.79,29.53,18,0,19,0.00
2013-12-19,38,33,25,32,26,19,85,75,69,29.85,29.65,14,1,15,0.00
2013-12-20,47,39,34,38,30,27,75,71,62,29.82,29.62,10,0,11,0.00
2013-12-21,53,49,41,47,44,32,87,82,70,29.68,29.59,11,1,12,0.00
2013-12-22,51,39,35,47,37,34,97,93,87,29.76,29.53,13,1,14,0.00
2013-12-23,37,35,33,36,34,32,98,97,96,29.79,29.68,4,0,5,0.00
2013-12-24,37,32,27,36,22,12,97,67,53,29.91,29.76,7,0,8,0.00
2013-12-25,27,20,14,13,4,-1,56,49,45,30.27,29.91,6,0,11,0.00
2013-12-26,34,30,20,28,23,7,83,74,56,30.21,29.79,0,0,1,0.00
2013-12-27,33,31,27,22,19,17,71,61,57,30.00,29.91,9,0,10,0.00
2013-12-28,43,35,28,27,22,18,70,60,50,29.94,29.71,8,0,9,0.00
2013-12-29,42,38,35,40,30,22,98,73,59,29.76,29.12,23,1,24,0.00
2013-12-30,40,33,20,39,27,7,98,80,55,29.91,29.23,8,1,9,0.00
2013-12-31,25,20,14,12,5,-1,62,52,47,29.91,29.76,8,0,9,0.00
2014-1-1,27,23,19,12,7,4,62,50,44,30.12,29.91,10,0,11,0.00
2014-1-2,22,14,1,16,6,-5,80,71,51,30.09,29.56,31,6,32,0.00